Location: Rounton
(54.4000°N, 1.3500°W)
Time: 18:09:21
(UTC+01:00)

S-56A Canister/Altair - Pass Details

Date: 10 September 2024
Orbit: 636 x 2487 km, 38.9° (Epoch: 06 October)

Event Time Altitude Azimuth Distance (km) Brightness Sun altitude
Rises 23:15:03 0° 245° (WSW) 4,088 11.3 -27.1°
Reaches altitude 10° 23:17:49 10° 236° (SW) 3,361 10.7 -27.3°
Enters shadow 23:22:24 28° 206° (SSW) 2,601 9.9 -27.6°
Maximum altitude 23:25:22 33° 176° (S) 2,584 - -27.8°
Drops below altitude 10° 23:35:44 10° 120° (ESE) 4,654 - -28.4°
Sets 23:40:21 0° 113° (ESE) 5,878 - -28.7°
